Skip Page Navigation
NASA JPL Caltech
NASA Logo - Jet Propulsion Laboratory + View the NASA Portal
+ Center for Near-Earth Object Studies
JPL Home Earth Solar System Stars & Galaxies Technology
JPL Solar System Dynamics
BODIES ORBITS EPHEMERIDES TOOLS PHYSICAL DATA DISCOVERY FAQ SITE MAP
IMPORTANT: The SSD Announcement email list is now available. Major changes are coming in the near future, including possible hostname and/or URL changes. To be notified of such changes, subscribe to this email list.

Please visit this page for more details.


JPL Small-Body Database Browser
Search: [ help ]  
35010 (1981 DV1)
Classification: Main-belt Asteroid          SPK-ID: 2035010
Ephemeris | Orbit Diagram | Orbital Elements | Mission Design | Physical Parameters | Discovery Circumstances | Close-Approach Data ]

[ show orbit diagram ]
Orbital Elements at Epoch 2458600.5 (2019-Apr-27.0) TDB
Reference: JPL 20 (heliocentric ecliptic J2000)
 Element Value Uncertainty (1-sigma)   Units 
e .058285573220761 4.3798e-08  
a 3.100504832778805 3.2413e-08 au
q 2.919790131326552 1.4639e-07 au
i 10.37998248071198 5.9196e-06 deg
node 317.3083193567315 3.2404e-05 deg
peri 301.9097218476351 6.6819e-05 deg
M 280.6015005337165 5.8633e-05 deg
tp 2459040.301635359282
(2020-Jul-09.80163536)
0.00032501 TDB
period 1994.100515672536
5.46
3.127e-05
8.561e-08
d
yr
n .1805325243991451 2.831e-09 deg/d
Q 3.281219534231057 3.4303e-08 au
  Orbit Determination Parameters
   # obs. used (total)      531  
   data-arc span      13915 days (38.10 yr)  
   first obs. used      1981-02-28  
   last obs. used      2019-04-05  
   planetary ephem.      DE431  
   SB-pert. ephem.      SB431-N16  
   condition code      0  
   norm. resid. RMS      .59331  
   source      ORB  
   producer      Otto Matic  
   solution date      2019-Jul-13 01:44:52  

Additional Information
 Earth MOID = 1.91971 au 
 Jupiter MOID = 1.91577 au 
 T_jup = 3.194 
[ show covariance matrix ]

Ephemeris | Orbit Diagram | Orbital Elements | Mission Design | Physical Parameters | Discovery Circumstances | Close-Approach Data ]

Physical Parameter Table
Parameter Symbol Value Units Sigma Reference Notes
absolute magnitude H 14.5   n/a MPO259578  
diameter diameter 3.553 km 0.940 urn:nasa:pds:neowise_diameters_albedos::2.0[mainbelt] (http://adsabs.harvard.edu/abs/2011ApJ...741...68M)  
geometric albedo albedo 0.153   0.054 urn:nasa:pds:neowise_diameters_albedos::2.0[mainbelt] (http://adsabs.harvard.edu/abs/2011ApJ...741...68M)  

35010 (1981 DV1)          Discovered 1981-Feb-28 by Bus, S. J. at Siding Spring
Reference: 20020227/Numbers.arcLast Updated: 2004-04-19

[ show close-approach data ]
Ephemeris | Orbit Diagram | Orbital Elements | Mission Design | Physical Parameters | Discovery Circumstances | Close-Approach Data ]
ABOUT SSD CREDITS/AWARDS PRIVACY/COPYRIGHT GLOSSARY LINKS
FirstGov 2019-Oct-17 17:23 UT
(server date/time)  
NASA Home Page
Site Manager:   Ryan S. Park
Webmaster  Alan B. Chamberlin